Date,TemperatureHighF,TemperatureAvgF,TemperatureLowF,DewpointHighF,DewpointAvgF,DewpointLowF,HumidityHigh,HumidityAvg,HumidityLow,PressureMaxIn,PressureMinIn,WindSpeedMaxMPH,WindSpeedAvgMPH,GustSpeedMaxMPH,PrecipitationSumIn
2014-1-1,1,-2,-6,-2,-5,-10,90,84,82,30.54,30.45,8,2,10,0.00
2014-1-2,3,-3,-9,-3,-7,-11,91,81,63,30.57,30.44,6,1,9,0.00
2014-1-3,28,11,-11,28,9,-13,99,91,82,30.44,29.45,11,5,18,0.00
2014-1-4,35,16,0,34,11,-100,99,85,75,30.30,29.44,13,6,20,0.00
2014-1-5,-1,-8,-18,-4,-12,-22,93,82,75,30.44,30.32,17,5,20,0.00
2014-5-27,71,68,63,70,67,62,99,95,81,30.00,29.88,11,2,14,0.12
2014-5-28,80,65,57,65,60,56,99,86,57,30.08,29.98,8,1,10,0.10
2014-5-29,83,69,63,59,56,51,87,69,33,30.14,30.04,3,1,5,0.00
2014-5-30,84,74,67,67,60,54,71,62,55,30.14,30.06,0,0,4,0.00
2014-5-31,85,68,68,69,49,-100,99,66,57,30.07,29.88,3,1,6,0.36
2014-6-1,72,68,65,69,67,65,99,97,87,29.88,29.75,3,0,9,1.64
2014-6-2,79,72,63,67,64,57,99,78,65,29.85,29.69,12,5,24,0.12
2014-6-3,74,64,55,61,57,54,97,79,56,29.99,29.85,8,1,11,0.00
2014-6-4,81,73,59,61,59,58,99,64,46,29.88,29.85,3,0,6,0.00
2014-6-5,77,71,65,63,62,61,90,73,59,29.91,29.85,9,4,12,0.02
2014-6-6,84,73,57,66,62,57,99,72,42,29.96,29.88,4,0,6,0.02
2014-6-7,68,54,55,64,46,-100,99,88,86,30.09,29.93,4,1,10,0.34
2014-6-8,72,59,47,59,50,47,99,78,42,30.17,30.06,7,0,10,0.04
2014-6-9,70,64,59,57,56,53,87,75,63,30.06,29.98,0,0,0,0.00
2014-6-17,77,77,77,68,68,68,73,73,73,29.83,29.83,0,0,0,0.00
2014-6-18,80,75,69,71,69,68,99,84,69,29.91,29.78,4,2,14,0.00
2014-6-19,67,67,67,67,67,67,99,99,99,29.96,29.92,0,0,0,0.00
2014-6-20,72,70,68,69,69,68,99,93,89,29.97,29.96,3,2,10,0.00
2014-6-21,74,58,67,68,39,-100,99,77,79,29.92,29.83,0,0,0,0.00
2014-6-22,75,72,66,67,66,63,90,80,75,29.87,29.83,0,0,6,0.12
2014-6-23,79,79,79,63,63,63,58,58,58,29.85,29.85,6,6,8,0.00
2014-6-24,77,71,64,67,65,63,97,82,70,29.94,29.90,8,1,9,0.00
2014-6-25,70,70,70,63,63,63,79,79,79,30.05,30.05,4,4,4,0.00
2014-6-26,77,70,58,70,65,58,99,85,76,30.03,29.95,0,0,8,0.00
2014-6-27,80,77,73,71,70,68,85,78,73,29.85,29.76,3,0,8,0.00
2014-6-28,-200,0,200,-100,-100,-100,0,0,100,29.72,29.72,0,0,6,0.00
2014-6-29,80,70,65,72,67,65,99,92,78,29.73,29.67,2,1,9,0.50
2014-7-16,73,62,56,56,55,54,95,81,56,30.06,30.01,0,0,0,0.00
2014-7-17,59,58,58,57,57,57,97,96,93,30.04,30.03,0,0,0,0.00
2014-7-18,72,68,65,63,61,60,84,80,74,30.05,30.03,4,1,5,0.00
2014-7-19,78,59,68,68,52,63,85,76,67,29.96,29.90,8,2,8,0.02
2014-7-20,74,74,73,67,66,66,80,79,78,29.89,29.88,3,2,4,0.00
2014-7-21,77,77,77,70,70,70,80,80,80,29.87,29.87,0,0,9,0.00
2014-7-22,81,78,73,78,70,62,90,78,61,30.12,29.79,6,3,14,0.00
2014-7-27,71,70,69,61,61,61,77,74,70,29.82,29.81,0,0,7,0.00
2014-7-28,72,66,64,61,61,60,91,84,66,30.18,30.13,0,0,0,0.00
2014-7-29,79,66,58,62,60,57,98,82,57,30.15,30.05,7,1,14,0.00
2014-7-30,78,74,67,65,63,62,86,70,57,30.11,30.03,6,2,10,0.00
2014-7-31,81,47,63,64,41,61,93,73,51,30.04,30.01,2,0,8,0.00
2014-8-1,81,74,70,65,65,64,81,73,58,30.08,30.04,0,0,0,0.00
2014-8-2,74,69,66,66,65,65,97,87,75,30.14,30.09,0,0,0,0.00
2014-11-18,19,15,6,17,12,4,96,89,79,30.10,29.81,7,4,14,0.00
2014-11-19,25,22,18,21,18,16,99,86,74,30.00,29.77,10,6,25,0.00
2014-11-20,18,11,5,11,8,4,98,88,74,30.30,30.10,9,3,13,0.00
2014-11-21,31,17,3,27,14,3,99,89,79,30.33,29.98,11,4,15,0.00
2014-11-22,39,33,34,39,33,34,99,91,99,29.88,29.53,7,3,12,0.00
2014-11-23,51,44,34,51,44,32,99,98,94,29.51,29.38,9,3,21,0.00
2014-11-24,30,20,15,29,18,13,99,91,87,29.97,29.35,13,8,21,0.00
2014-11-25,26,19,9,22,16,9,99,88,76,30.15,29.99,9,1,13,0.00
2014-11-26,27,23,12,26,21,6,99,92,75,30.45,30.05,14,3,17,0.00
2014-11-27,10,5,0,5,1,-2,98,84,75,30.58,30.35,7,1,11,0.00
2014-11-28,24,17,5,24,16,5,99,94,86,30.31,29.72,6,2,12,0.00
2014-11-29,39,28,23,35,27,23,99,93,83,29.70,29.41,9,2,14,0.00
2014-11-30,23,12,3,21,7,0,90,81,72,30.54,29.73,12,6,22,0.00
2014-12-1,5,2,-1,0,-4,-7,89,76,65,30.85,30.49,12,2,16,0.00
2014-12-2,23,17,3,19,13,0,96,83,73,30.47,29.98,12,4,12,0.00
2014-12-3,22,17,11,16,14,10,98,88,75,30.37,30.06,15,3,18,0.00
2014-12-4,32,24,14,27,19,13,96,80,54,30.39,30.11,8,2,14,0.00
2014-12-5,32,30,25,32,30,25,99,98,88,30.44,30.12,6,1,9,0.00
2014-12-6,32,24,19,26,22,18,99,89,76,30.69,30.46,5,0,6,0.00
2014-12-7,34,31,24,33,29,22,99,92,85,30.58,30.06,10,4,20,0.00
2014-12-8,35,29,22,35,28,20,99,94,87,30.38,30.01,13,5,18,0.00
2014-12-9,22,20,16,21,19,15,99,96,90,30.58,30.40,6,1,11,0.00
2014-12-10,29,24,21,29,23,21,99,90,96,30.48,30.31,7,1,8,0.00
2014-12-11,32,28,28,32,28,28,99,97,99,30.32,30.22,7,1,8,0.00
2014-12-12,39,35,33,39,35,33,99,99,99,30.25,30.10,7,3,10,0.00
2014-12-13,50,44,38,49,44,38,99,99,95,30.10,29.94,8,3,11,0.00
2014-12-14,52,49,48,52,49,48,99,97,99,29.96,29.80,9,3,12,0.00
2014-12-15,52,43,29,52,43,29,99,99,99,29.89,29.70,10,1,23,0.22
2014-12-16,28,21,16,28,20,15,99,95,91,30.34,29.91,16,7,21,0.02
2014-12-17,20,14,8,17,13,8,99,94,84,30.42,30.31,7,2,11,0.00
2014-12-18,22,17,8,21,16,8,99,96,90,30.40,30.28,7,0,7,0.00
2014-12-19,30,26,21,30,26,20,99,98,96,30.33,30.20,9,2,11,0.00
2014-12-20,31,26,29,31,25,29,99,95,95,30.21,30.10,7,3,10,0.00
2014-12-21,39,35,31,39,35,31,99,99,98,30.09,29.73,10,3,11,0.16
2014-12-22,40,37,35,40,37,35,99,99,99,29.73,29.61,11,2,14,0.14
2014-12-23,36,35,33,36,35,33,99,99,96,29.90,29.64,9,4,15,0.02
2014-12-24,36,34,31,35,34,31,99,98,94,29.89,29.63,8,4,10,0.02
2014-12-25,35,32,29,34,31,29,99,98,92,29.89,29.62,9,2,13,0.00
2014-12-26,32,31,28,32,30,28,99,97,92,30.12,29.89,8,3,13,0.00
2014-12-27,28,20,11,28,19,11,99,93,87,30.16,30.05,10,4,14,0.00